Regional Weather Roundup
Issued by NWS

Home | Current Version | Previous Version | Graphics & Text | Print | Product List | Glossary Off
Versions: 1 2 3 4 5 6 7 8 9 10 11 12 13 14 15 16 17 18 19 20 21 22 23 24 25 26 27 28 29 30 31 32 33 34 35 36 37 38 39 40 41 42 43 44 45 46 47 48 49 50

000
ASUS43 KDTX 291901
RWRMI
MICHIGAN HOURLY REGIONAL WEATHER ROUNDUP
NATIONAL WEATHER SERVICE DETROIT/PONTIAC MI
300 PM EDT MON JUN 29 2015

NOTE: "FAIR" INDICATES FEW OR NO CLOUDS BELOW 12,000 FEET WITH NO
SIGNIFICANT WEATHER AND/OR OBSTRUCTION TO VISIBILITY.

MIZ047>049-052>055-059>063-066>070-074>076-081>083-292000-
SOUTHEAST LOWER MICHIGAN

CITY           SKY/WX    TMP DP  RH WIND       PRES   REMARKS
ADRIAN         PTSUNNY   70  58  65 S13       29.89F
ALMA           CLOUDY    76  55  48 S12G18    29.84F
ANN ARBOR      PTSUNNY   71  57  61 S8        29.88F
BAD AXE        PTSUNNY   79  52  38 S12       29.86S
CARO           MOSUNNY   78  56  46 S8G16     29.84F
DETROIT CITY   MOSUNNY   72  54  53 SW15      29.89R
DETROIT        PTSUNNY   74  55  51 S16       29.89F
FLINT          PTSUNNY   72  51  47 S17G28    29.86R
GROSSE ILE       N/A     72  61  68 S10       29.88F
HILLSDALE      PTSUNNY   69  58  67 SE14G20   29.88S
HOWELL         PTSUNNY   71  59  66 S9        29.87S

CITY           SKY/WX    TMP DP  RH WIND       PRES   REMARKS
JACKSON        PTSUNNY   70  57  63 S13       29.87F
LAMBERTVILLE   PTSUNNY   72  58  60 S13       29.89S
LANSING        PTSUNNY   75  60  59 S17       29.86S
LAPEER         FAIR      76  54  46 SE15      29.86F
MASON          CLOUDY    66  60  79 S5        29.87S
MONROE         CLOUDY    70  57  63 SE12G17   29.89S
MT. CLEMENS    PTSUNNY   76  61  60 S17       29.85F
PONTIAC        CLOUDY    72  58  61 S7        29.86F
PORT HOPE        N/A     70  60  70 E15       29.84F
PORT HURON     PTSUNNY   73  57  56 SE8       29.87F
TRI CITIES     MOSUNNY   81  51  35 S7        29.84F
MIDLAND        FAIR      81  51  35 S6        29.82F
TROY           PTSUNNY   75  54  48 S14G21    29.90R
SAGINAW HB     MOSUNNY   79  54  41 SE12      29.83F
$$
MIZ043>046-050>051-056>058-064>065-071>073-077>080-292000-
SOUTHWEST LOWER MICHIGAN

CITY           SKY/WX    TMP DP  RH WIND       PRES   REMARKS
BATTLE CREEK   CLOUDY    72  57  59 SE9       29.86S
BENTON HARBOR  CLOUDY    70  62  76 S8        29.83S
BIG RAPIDS     PTSUNNY   77  48  35 SE3       29.82S
COLDWATER      CLOUDY    68  57  67 S13G18    29.86S
FREMONT        PTSUNNY   68  57  68 SW14      29.84R
HOLLAND        PTSUNNY   76  60  57 SE9       29.83F
GRAND RAPIDS   PTSUNNY   74  59  59 S12       29.84S
IONIA          PTSUNNY   77  57  50 S16       29.83S
KALAMAZOO      CLOUDY    73  59  61 SE8       29.84F
LUDINGTON      MOSUNNY   76  64  67 W8        29.82F
MARSHALL       PTSUNNY   71  57  62 SE7       29.86S
MOUNT PLEASANT MOSUNNY   80  55  42 S7        29.82F
MUSKEGON       LGT RAIN  67  62  84 E3        29.84S
SOUTH HAVEN    LGT RAIN  67  62  85 CALM      29.83S
$$
MIZ016>042-292000-
NORTHERN LOWER MICHIGAN

CITY           SKY/WX    TMP DP  RH WIND       PRES   REMARKS
ALPENA         SUNNY     79  52  38 E12       29.82F
BEAVER ISLAND  SUNNY     75  51  42 SW10      29.81F
BELLAIRE       SUNNY     81  48  32 SW6       29.80F
CADILLAC       SUNNY     79  53  40 S7        29.83S
CHARLEVOIX     SUNNY     79  47  32 W8        29.84F
FRANKFORT      SUNNY     72  54  53 W8        29.82F
GAYLORD        MOSUNNY   79  48  33 SW8G20    29.83S
GRAYLING       MOSUNNY   79  51  36 S12       29.83F
HARBOR SPRINGS SUNNY     78  47  32 W6        29.81F
HOUGHTON LAKE  MOSUNNY   79  51  37 S12       29.83F
MANISTEE       SUNNY     73  55  53 W8        29.82F
OSCODA         SUNNY     79  52  38 S6G18     29.83F
PELLSTON       SUNNY     82  47  29 SW9       29.81F
ROGERS CITY    PTSUNNY   76  56  48 NE5       29.81F
TRAVERSE CITY  PTSUNNY   83  51  33 SW9       29.78F
$$
MIZ007>008-015-292000-
EASTERN UPPER MICHIGAN

CITY           SKY/WX    TMP DP  RH WIND       PRES   REMARKS
KINROSS        SUNNY     79  48  34 S12       29.80S
MACKINAC ISLAN SUNNY     74  45  34 W9        29.81F
NEWBERRY       SUNNY     74  57  55 S13G20    29.79F
S. S. MARIE    SUNNY     81  47  30 SW12      29.78S
MUNISING         N/A     69  61  75 W16G25    29.75R
$$
MIZ004>006-011>014-085-292000-
CENTRAL UPPER MICHIGAN

CITY           SKY/WX    TMP DP  RH WIND       PRES   REMARKS
MANISTIQUE     SUNNY     68  54  61 S7        29.80F
ESCANABA       SUNNY     73  57  56 S12G18    29.77F
MENOMINEE      SUNNY     75  55  50 S14       29.77F
SAWYER-GWINN   LGT RAIN  66  59  77 NW9       29.77S
$$
MIZ001>003-009>011-084-292000-
WESTERN UPPER MICHIGAN

CITY           SKY/WX    TMP DP  RH WIND       PRES   REMARKS
IRON MOUNTAIN  LGT RAIN  67  59  75 CALM      29.77R
HOUGHTON       MOSUNNY   75  59  57 W9        29.72F
COPPER HARBOR    N/A     64  61  90 CALM      29.73F
$$

ABBREVIATIONS USED IN REMARKS
   TC - TEMPERATURE IN CELSIUS
  WCI - WIND CHILL INDEX
   HX - HEAT INDEX
  VSB - VISIBILITY




USA.gov is the U.S. government's official web portal to all federal, state and local government web resources and services.